Date,TemperatureHighF,TemperatureAvgF,TemperatureLowF,DewpointHighF,DewpointAvgF,DewpointLowF,HumidityHigh,HumidityAvg,HumidityLow,PressureMaxIn,PressureMinIn,WindSpeedMaxMPH,WindSpeedAvgMPH,GustSpeedMaxMPH,PrecipitationSumIn
2012-12-1,66.6,46.4,36.8,50.3,39.7,32.3,88,78,47,30.45,30.35,1,0,6,0.00
2012-12-2,69.1,56.2,44.8,53.6,48.6,41.2,88,76,55,30.42,30.29,7,1,9,0.00
2012-12-3,72.8,53.5,42.9,51.0,44.6,37.7,86,73,45,30.36,30.27,2,0,8,0.00
2012-12-4,72.4,60.4,49.6,54.1,50.5,45.0,88,71,47,30.35,30.22,6,1,8,0.00
2012-12-5,65.3,57.0,51.6,57.5,51.9,46.1,88,83,75,30.23,30.14,6,0,6,0.07
2012-12-6,52.3,48.8,46.1,46.2,36.9,30.5,80,64,48,30.30,30.20,7,0,7,0.00
2012-12-7,59.2,48.8,43.9,47.0,40.9,35.5,88,74,62,30.24,30.05,5,0,5,0.00
2012-12-8,69.3,52.6,42.4,54.9,46.7,37.7,88,81,59,30.11,30.03,7,0,7,0.01
2012-12-9,66.2,57.7,53.1,58.3,51.6,46.7,87,80,74,30.14,30.02,5,0,8,0.00
2012-12-10,63.3,57.9,55.4,57.7,52.3,48.7,87,82,78,30.02,29.73,7,1,7,0.34
2012-12-11,57.9,48.5,41.5,53.4,40.1,32.9,89,74,50,30.18,29.77,9,0,9,0.00
2012-12-12,45.9,43.1,40.7,37.2,34.2,31.7,75,71,66,30.34,30.17,10,0,10,0.00
2012-12-13,54.1,43.8,35.6,32.1,26.6,22.8,69,51,33,30.44,30.32,6,0,10,0.00
2012-12-14,60.2,40.5,26.4,32.1,27.2,22.5,87,62,31,30.45,30.29,5,0,5,0.00
2012-12-15,64.1,46.0,35.5,39.5,34.6,29.5,83,66,35,30.31,30.13,3,0,4,0.00
2012-12-16,52.4,50.3,47.5,48.5,43.6,38.2,87,78,67,30.13,29.95,2,0,2,0.92
2012-12-17,54.4,52.2,49.7,50.4,46.6,43.6,87,81,79,29.95,29.72,6,0,6,0.18
2012-12-18,59.9,51.9,43.0,49.7,37.7,25.3,89,62,29,30.00,29.72,10,1,10,0.00
2012-12-19,68.3,53.9,36.8,42.3,36.6,27.5,75,53,37,30.13,30.00,5,1,7,0.00
2012-12-20,46.5,43.9,38.5,42.0,39.3,29.6,88,84,70,30.13,29.69,4,0,15,1.21
2012-12-21,43.3,37.9,33.1,27.9,20.9,14.9,68,51,39,30.02,29.76,17,4,18,0.00
2012-12-22,56.1,38.7,24.2,20.1,16.0,12.3,71,42,20,30.20,30.01,6,0,6,0.00
2012-12-23,56.4,40.5,25.1,33.7,24.4,14.1,83,55,29,30.22,30.09,4,0,6,0.00
2012-12-24,46.0,42.9,39.4,39.2,36.2,31.9,88,78,60,30.11,29.93,2,0,3,0.98
2012-12-25,46.2,43.9,41.8,42.0,39.1,36.7,88,83,81,30.13,29.95,6,0,6,0.06
2012-12-26,47.8,42.4,33.0,44.4,37.0,27.6,89,81,73,29.95,29.55,11,1,14,2.03
2012-12-27,51.8,36.9,25.6,33.0,28.3,22.1,90,73,43,30.13,29.83,4,0,4,0.00
2012-12-28,45.4,35.6,28.2,31.9,28.5,24.6,88,76,57,30.23,30.02,4,0,5,0.00
2012-12-29,54.9,39.8,33.7,41.9,31.1,21.6,89,72,48,30.14,29.81,12,1,12,0.28
2012-12-30,50.3,33.9,23.1,24.8,21.4,19.3,88,63,31,30.47,30.14,5,0,7,0.00
2012-12-31,52.8,39.8,26.3,28.6,25.3,21.8,86,59,33,30.45,30.19,5,0,9,0.00